Location: ????????????
(48.3933°N, 37.5403°E)
Time: 09:57:32
(UTC+00:00)

Daily predictions for brighter satellites

Satellite Brightness Start Highest point End
(mag) Time Altitude Azimuth Time Altitude Azimuth Time Altitude Azimuth
NOSS 3-1 (A) 4.1 13:58:42 10° NW 14:05:58 67° NE 14:14:32 10° SE
NOSS 3-1 (C) 4.2 13:59:25 10° NW 14:06:50 88° SW 14:15:34 10° SE
USA 234 3.3 14:00:43 10° ESE 14:07:14 75° NNE 14:13:46 10° NW
Cosmos 1408 Rocket 3.6 14:05:18 10° N 14:09:39 63° ENE 14:13:59 10° SSE
COSMOS 2455 4.3 14:08:43 10° SSE 14:12:47 19° ESE 14:16:52 10° ENE
Envisat 4.4 14:08:16 10° S 14:13:05 43° W 14:17:56 10° NNW
COSMOS 2406 4.3 14:08:43 10° SSE 14:13:19 26° ESE 14:17:57 10° NE
NOAA 11 4.3 14:08:53 10° SSE 14:14:19 86° WSW 14:19:48 10° NNW
SJ-7 4.5 14:11:16 10° SSE 14:15:28 84° ENE 14:19:44 10° NNW
NOAA 12 4.1 14:10:37 10° SSE 14:15:53 67° ENE 14:21:11 10° N
Okean O Rocket 3.2 14:14:05 10° E 14:16:32 15° ENE 14:18:59 10° NNE
Cosmos 1743 Rocket 3.9 14:13:04 10° N 14:17:12 41° ENE 14:21:18 10° SSE
Iridium 2 4.0 14:14:04 10° N 14:17:49 70° W 14:21:33 10° S
Meteor PRIRODA 3.5 14:14:35 10° SSE 14:18:11 71° ENE 14:21:49 10° N
ATLAS CENTAUR R/B 3.0 14:15:03 10° W 14:18:46 29° NW 14:22:44 10° NNE
Cosmos 1833 Rocket 3.4 14:15:22 10° S 14:20:26 36° ESE 14:25:31 10° NE
ARGOS 4.3 14:18:19 10° ESE 14:22:16 21° ENE 14:26:12 10° N
USA 276 2.9 14:19:58 10° WNW 14:23:02 53° SSW 14:26:05 10° SE
Cosmos 1782 4.2 14:22:09 10° SE 14:25:00 19° E 14:27:51 10° NE
Cosmos 1464 Rocket 4.1 14:18:58 10° S 14:25:21 85° E 14:31:46 10° N
Spot 1 4.3 14:21:59 10° NNE 14:26:40 76° ESE 14:31:35 10° S
USA 308 3.6 14:22:51 10° W 14:26:56 44° NNW 14:30:47 11° ENE
Nadezhda 4 Rocket 4.0 14:26:51 10° N 14:33:13 84° E 14:39:34 10° S
SJ 16-02 3.5 14:29:44 10° NW 14:33:35 30° W 14:37:25 10° SSW
Cosmos 1340 Rocket 2.8 14:30:29 10° N 14:34:34 81° ENE 14:38:39 10° SSE
CZ-4C R/B 4.2 14:31:05 10° N 14:34:52 48° WNW 14:38:27 10° SW
CZ-4B R/B 3.8 14:33:31 10° SE 14:38:16 33° ENE 14:42:59 10° N
CZ-4C R/B 3.2 14:32:12 10° NW 14:38:42 44° NE 14:46:24 10° ESE
Cosmos 2360 4.2 14:33:02 10° NNW 14:38:45 63° ENE 14:44:25 10° SE
Meteor 1-20 Rocket 4.3 14:34:10 10° N 14:40:00 70° ENE 14:45:49 10° SSE
CZ-2C R/B 3.7 14:37:16 10° NE 14:41:23 23° E 14:45:26 10° SE
ISS -3.6 14:38:07 10° WNW 14:41:30 57° NNE 14:44:11 15° E
CZ-2D R/B 3.7 14:38:12 10° SE 14:41:45 37° ENE 14:45:17 10° N
Cosmos 1606 3.6 14:38:14 10° SSW 14:41:53 48° WNW 14:45:35 10° N
Lacrosse 5 rocket 2.4 14:39:40 10° NW 14:42:58 26° NNE 14:45:18 16° ENE
Cosmos 540 Rocket 4.0 14:39:28 10° S 14:44:09 38° ESE 14:48:44 11° NE
GEOS 3 Rocket 4.5 14:39:53 10° E 14:44:19 30° NNE 14:48:47 10° NNW
Cosmos 1500 Rocket 3.5 14:41:43 10° N 14:46:12 87° E 14:50:36 10° S
Cosmos 1092 Rocket 4.0 14:41:33 10° N 14:47:54 66° ENE 14:54:12 10° SSE
MOS 1-B 4.5 14:43:07 10° SE 14:48:41 52° ENE 14:54:17 10° N
CZ-2C R/B 3.7 14:45:14 10° S 14:50:03 56° W 14:54:47 10° NNW
SMAP 3.0 14:45:46 10° SSE 14:50:26 88° ENE 14:55:07 10° NNW
CZ-4B R/B 3.8 14:47:10 10° S 14:51:08 51° W 14:54:56 10° NNW
Cosmos 44 Rocket 4.4 14:47:48 10° NNW 14:51:55 25° NNE 14:54:16 18° ENE
Cosmos 1428 Rocket 4.4 14:46:41 10° N 14:52:46 63° ENE 14:58:51 10° SSE
Cosmos 468 Rocket 3.9 14:48:20 10° SSW 14:53:28 74° ESE 14:58:41 10° NNE
Cosmos 1500 3.5 14:50:32 10° N 14:54:05 39° ENE 14:57:36 10° SE
Cosmos 1898 Rocket 3.5 14:48:53 10° NNW 14:54:11 89° ENE 14:59:24 10° SSE
USA 305 3.7 14:50:22 10° WNW 14:54:21 39° N 14:56:56 19° NE
Cosmos 1805 Rocket 3.4 14:53:25 10° N 14:57:45 69° E 15:02:04 10° SSE
Cosmos 2360 Rocket 3.9 14:55:18 10° N 14:57:56 13° NNE 14:58:40 13° NE
Sich 1 3.0 14:54:22 10° N 14:58:35 55° ENE 15:02:49 10° SSE
Cosmos 1933 3.2 14:56:59 10° S 15:00:59 69° E 15:05:02 10° NNE
Cosmos 2221 3.8 14:58:51 10° SW 15:02:53 40° WNW 15:06:59 10° N
PSLV R/B 3.5 15:03:02 10° SSE 15:06:42 81° ENE 15:10:27 10° NNW
Cosmos 1627 Rocket 4.4 15:02:20 10° N 15:08:34 79° E 15:14:41 10° SSE
NOSS 2-2 (C) 4.2 15:05:19 10° NW 15:10:19 72° NE 15:17:21 10° SE
Cosmos 2034 Rocket 4.4 15:05:30 10° SSW 15:11:36 64° WNW 15:17:44 10° N
Meteor 1-14 Rocket 4.4 15:08:28 10° N 15:14:09 53° ENE 15:19:55 10° SSE
H-2A R/B 1.9 15:09:06 10° SSE 15:14:17 76° ENE 15:19:21 10° N
deb Chang Zheng 4 3.6 15:10:53 10° SE 15:15:04 52° ENE 15:19:16 10° N
USA 267 3.4 15:10:52 18° NE 15:15:53 73° NNW 15:22:23 10° WSW
MOS 1-B Rocket 4.1 15:11:29 10° NNE 15:17:17 61° ESE 15:23:48 10° S
Cosmos 2322 Rocket 3.4 15:13:24 10° N 15:17:47 22° NE 15:18:15 22° NE
Cosmos 2279 Rocket 4.2 15:11:56 10° SSE 15:17:50 48° E 15:23:45 10° NNE
Cosmos 1697 Rocket 3.2 15:15:42 10° NNW 15:21:16 63° WSW 15:26:47 10° SSE
Cosmos 1666 2.8 15:20:10 10° N 15:23:48 47° ENE 15:27:23 10° SSE
Cosmos 2369 3.7 15:18:42 10° NNW 15:24:29 86° WSW 15:30:12 10° SSE
SJ-11-01 4.3 15:19:54 10° SSE 15:24:33 57° ENE 15:29:13 10° N
ATLAS 5 CENTAUR R/B 2.6 15:16:49 10° NW 15:24:49 42° NNE 15:25:50 34° ENE
Cosmos 1980 Rocket 2.1 15:19:28 10° NNW 15:25:11 78° ENE 15:30:49 10° SSE
USA 306 3.7 15:22:35 10° WNW 15:26:34 38° N 15:27:44 31° NE
ERBS 4.0 15:24:08 10° WNW 15:26:39 21° NNW 15:27:11 20° N
Meteor 1-5 Rocket 4.3 15:20:56 10° N 15:26:53 60° ENE 15:32:44 10° SSE
Meteor 2-21 4.4 15:22:08 10° N 15:28:16 85° W 15:34:18 10° S
Cosmos 1763 Rocket 4.0 15:23:33 10° SW 15:28:32 56° WNW 15:33:29 11° NNE
COSMO-SKYMED 1 2.6 15:27:55 25° NNE 15:30:16 55° E 15:34:32 10° S
SL-24 R/B - RUBIN 2 3.5 15:26:33 10° NW 15:31:09 89° SW 15:34:49 14° SE
Cosmos 1634 Rocket 4.0 15:26:56 10° S 15:33:16 88° WNW 15:39:39 10° N
Cosmos 841 Rocket 3.3 15:28:41 10° SSW 15:33:50 77° ESE 15:37:08 23° NNE
SL-16 R/B 2.8 15:29:56 10° NNW 15:35:03 33° NE 15:35:31 32° ENE
Cosmos 1937 Rocket 4.2 15:30:33 10° NNW 15:35:46 58° WSW 15:40:58 10° S
ATLAS CENTAUR R/B 2.7 15:26:39 10° SW 15:35:49 83° NW 15:37:37 37° NE
Cosmos 1125 Rocket 4.2 15:32:17 10° N 15:36:47 33° NE 15:36:47 33° NE
Helios 1B 4.5 15:37:05 30° NNE 15:39:09 67° ESE 15:43:27 10° S
Cosmos 2026 Rocket 4.3 15:33:33 10° NNW 15:39:38 65° W 15:45:37 10° S
Cosmos 2082 Rocket 2.1 15:34:00 10° SSW 15:39:39 69° ESE 15:42:35 29° NE
Cosmos 1812 2.5 15:36:38 10° S 15:40:27 73° E 15:41:27 47° NNE
Cosmos 1633 Rocket 2.9 15:37:23 10° N 15:41:46 71° E 15:46:08 10° SSE
ATLAS 2AS CENTAUR R/B 4.2 15:36:44 10° NW 15:42:50 25° N 15:46:02 19° NNE
YAOGAN 1 3.9 15:45:11 25° NNE 15:45:11 25° NNE 15:47:15 10° N
Cosmos 2333 Rocket 4.1 15:39:55 10° N 15:42:09 15° NNE 15:42:09 15° NNE
USA 307 3.6 15:40:53 10° WNW 15:44:55 39° N 15:45:19 38° NNE
Cosmos 2278 3.6 15:43:15 10° NNW 15:49:00 85° ENE 15:54:42 10° SSE
Cosmos 372 Rocket 4.3 15:45:09 10° NNW 15:50:21 66° WSW 15:55:32 10° S
USA 234 4.4 15:44:25 10° SSE 15:50:33 42° SW 15:56:43 10° WNW
Cosmos 1655 Rocket 4.0 15:45:31 10° N 15:51:51 57° ENE 15:58:05 10° SSE
Okean O Rocket 1.7 15:47:50 10° SSE 15:52:17 81° WSW 15:56:47 10° NNW
COSMOS 2406 3.7 15:51:33 10° SW 15:57:13 60° WNW 16:01:00 21° NNE
COSMOS 2455 2.8 15:51:55 10° SW 15:57:57 86° NW 16:00:45 34° NNE
Meteor 2-15 4.4 15:52:19 10° S 15:58:17 59° E 16:01:34 27° NNE
ATLAS CENTAUR R/B 4.0 15:57:21 10° NW 15:59:07 12° NNW 16:00:08 11° N
Cosmos 1151 Rocket 3.0 15:55:15 10° SSW 15:59:35 79° W 16:01:14 37° N
Cosmos 1782 4.1 15:57:14 10° SW 16:01:00 39° WNW 16:04:07 14° N
ARGOS 3.4 15:56:35 10° S 16:02:00 72° WSW 16:07:25 10° NNW
Cosmos 2180 Rocket 4.4 15:57:40 10° S 16:04:01 80° E 16:10:20 10° N
Cosmos 1833 Rocket 3.7 15:58:56 10° SW 16:04:17 43° NW 16:08:05 18° N
Cosmos 1666 Rocket 4.3 16:02:10 10° NNW 16:06:32 54° W 16:10:50 10° S
USA 308 3.8 16:03:24 10° WNW 16:06:49 38° NNW 16:06:49 38° NNW
Meteor 2-6 Rocket 4.1 16:02:34 10° S 16:08:21 82° E 16:11:08 32° NNE
Cosmos 2219 Rocket 4.2 16:09:15 10° N 16:10:38 14° N 16:10:38 14° N
Cosmos 1328 Rocket 3.6 16:09:15 10° SSW 16:13:42 80° W 16:13:46 79° WNW
Meteor 2-8 Rocket 4.4 16:11:43 10° S 16:17:52 85° W 16:23:55 11° N
ISS -1.9 16:15:03 10° WNW 16:17:11 31° W 16:17:11 31° W
SKYMED 2 4.4 16:16:31 30° NNW 16:18:19 49° WNW 16:22:30 10° SW
CZ-4B R/B 4.3 16:13:35 10° S 16:18:43 42° W 16:23:48 10° NNW
NOAA 15 4.5 16:13:47 10° SSE 16:19:05 88° WSW 16:24:25 10° NNW
CZ-4 R/B 4.1 16:23:50 11° NNW 16:23:50 11° NNW 16:23:57 10° NNW
Cosmos 2298 Rocket 3.9 16:14:54 10° NNW 16:19:52 74° NNE 16:19:52 74° NNE
Cosmos 1570 Rocket 4.0 16:15:41 10° SSW 16:20:56 81° WNW 16:21:37 67° N
GEOS 3 Rocket 3.6 16:21:01 59° SSE 16:22:00 79° SW 16:27:14 10° NW
CZ-2C R/B 3.2 16:17:52 15° N 16:22:01 54° WNW 16:27:02 10° SW
Lacrosse 5 rocket 2.6 16:18:37 10° NW 16:20:54 33° NW 16:20:54 33° NW
Landsat 5 4.1 16:23:53 53° WSW 16:23:53 53° WSW 16:27:19 10° SSW
SL-08 RB Rocket 4.3 16:20:41 10° S 16:25:15 56° W 16:29:49 10° NNW
Meteor 1-11 Rocket 3.6 16:20:05 10° N 16:25:14 73° NNE 16:25:14 73° NNE
Meteor 1-10 Rocket 4.1 16:20:20 10° S 16:26:09 84° E 16:26:29 78° NE
CZ-4C R/B 3.2 16:20:35 10° NW 16:27:46 68° SW 16:34:47 16° SSE
Cosmos 1818 3.5 16:22:44 10° NW 16:28:15 84° SW 16:28:21 83° SSW
Cosmos 1814 Rocket 4.3 16:23:45 10° SW 16:28:55 62° WNW 16:29:52 52° NNW
Cosmos 44 Rocket 3.8 16:29:03 10° NW 16:33:01 56° NW 16:33:01 56° NW
Cosmos 2360 Rocket 3.7 16:37:58 10° NNW 16:40:26 25° N 16:40:26 25° N
USA 267 3.9 16:58:13 44° N 16:58:26 44° N 17:04:33 10° WNW
Cosmos 2322 Rocket 3.4 16:56:52 10° NNW 17:00:05 35° NNW 17:00:05 35° NNW
SL-16 R/B 3.5 17:13:55 10° NW 17:17:26 35° WNW 17:17:26 35° WNW
Cosmos 2082 Rocket 3.9 17:19:31 10° WSW 17:24:15 26° NW 17:24:28 26° NW
ATLAS 2AS CENTAUR R/B 4.3 17:29:27 10° NW 17:33:28 26° NNW 17:33:28 26° NNW
